Location: Devore Heights
(34.2372°N, 117.4156°W)
Time: 23:09:20
(UTC+00:00)

Transit 4A - Pass Details

Date: 21 September 2024
Orbit: 864 x 978 km, 66.8° (Epoch: 13 October)

Event Time Altitude Azimuth Distance (km) Brightness Sun altitude
Rises 08:56:46 0° 207° (SSW) 3,433 - -51.2°
Reaches altitude 10° 08:59:13 10° 208° (SSW) 2,505 - -50.9°
Maximum altitude 09:05:00 83° 296° (WNW) 891 - -50.3°
Drops below altitude 10° 09:10:58 10° 25° (NNE) 2,575 - -49.6°
Exits shadow 09:11:14 - 25° (NNE) 2,672 10.8 -49.6°
Sets 09:13:31 0° 26° (NNE) 3,536 11.6 -49.3°
